This demonstration page uses our WeatherBlox Daily Observations layout. Learn more.

Left ArrowRight Arrow

39.95238, -75.16362

Hourly Observations for February 7, 2017

Temp ( °F °C ) Dew Point ( °F °C ) Humidity (%) Winds ( mph kmh ) Pressure ( in mb ) Visibility ( mi km ) Precip ( " mm )
12:54 am 00:54 Mostly Cloudy 42 5.6 33 0.6 71 71 SW 3 6 29.98 1015 10 16 0.00 0.00
1:54 am 01:54 Mostly Cloudy 41 5 32 0 70 70 S 5 7 29.96 1014 10 16 0.00 0.00
2:54 am 02:54 Cloudy 44 6.7 34 1.1 68 68 Calm 29.93 1014 10 16 0.00 0.00
3:54 am 03:54 Cloudy 43 6.1 34 1.1 71 71 Calm 29.91 1013 10 16 0.00 0.00
4:54 am 04:54 Cloudy 41 5 34 1.1 76 76 N 5 7 29.90 1013 10 16 0.00 0.00
5:54 am 05:54 Cloudy 45 7.2 35 1.7 68 68 NNE 5 7 29.90 1013 10 16 0.00 0.00
6:54 am 06:54 Mostly Cloudy 42 5.6 35 1.7 76 76 E 7 11 29.89 1012 10 16 0.00 0.00
7:54 am 07:54 Mostly Cloudy 44 6.7 35 1.7 71 71 ENE 3 6 29.89 1012 10 16 0.00 0.00
8:54 am 08:54 Cloudy 49 9.4 37 2.8 64 64 ENE 3 6 29.89 1012 10 16 0.00 0.00
9:54 am 09:54 Cloudy with Light Rain 47 8.3 38 3.3 71 71 NE 6 9 29.87 1012 7 11 0.00 0.03
10:27 am 10:27 Cloudy with Light Rain 47 8.3 40 4.4 77 77 NW 12 19 29.94 1014 6 10 0.00 0.03
10:31 am 10:31 Cloudy with Light Rain 46 7.8 40 4.4 79 79 NW 13 20 29.94 1014 4 6 0.00 0.03
10:48 am 10:48 Cloudy with Light Rain 45 7 41 5 87 87 E 9 15 29.88 1012 7 11 0.04 1.02
10:54 am 10:54 Cloudy with Light Rain 45 7.2 41 5 86 86 E 7 11 29.88 1012 7 11 0.04 1.02
11:54 am 11:54 Cloudy 46 7.8 42 5.6 86 86 NE 7 11 29.86 1011 7 11 0.00 0.03
12:54 pm 12:54 Cloudy 47 8.3 43 6.1 86 86 NE 9 15 29.81 1010 7 11 0.00 0.00
1:40 pm 13:40 Cloudy with Mist and Fog 47 8.3 43 6.1 86 86 NE 7 11 29.80 1009 6 10 0.00 0.00
1:54 pm 13:54 Cloudy with Haze 48 8.9 43 6.1 83 83 NE 8 13 29.78 1009 6 10 0.00 0.00
2:54 pm 14:54 Cloudy with Haze 50 10 44 6.7 80 80 ENE 6 9 29.75 1008 5 8 0.00 0.00
3:54 pm 15:54 Cloudy with Haze 51 10.6 45 7.2 80 80 ENE 8 13 29.73 1007 6 10 0.00 0.00
4:33 pm 16:33 Cloudy 51 10.6 46 7.8 83 83 ENE 7 11 29.74 1007 8 13 0.00 0.00
4:54 pm 16:54 Cloudy 51 10.6 46 7.8 83 83 ENE 6 9 29.72 1006 9 14 0.00 0.00
5:54 pm 17:54 Cloudy 48 8.9 45 7.2 89 89 ENE 8 13 29.70 1006 9 14 0.00 0.00
6:54 pm 18:54 Mostly Cloudy 47 8.3 44 6.7 90 90 ENE 7 11 29.69 1005 10 16 0.00 0.00
7:54 pm 19:54 Mostly Cloudy 45 7.2 43 6.1 93 93 ENE 6 9 29.66 1004 8 13 0.00 0.00
8:54 pm 20:54 Partly Cloudy 43 6.1 41 5 93 93 E 3 6 29.63 1004 7 11 0.00 0.00
9:54 pm 21:54 Mostly Cloudy 42 5.6 40 4.4 92 92 ENE 5 7 29.62 1003 7 11 0.00 0.00
10:54 pm 22:54 Mostly Cloudy 42 5.6 40 4.4 92 92 N 6 9 29.59 1002 7 11 0.00 0.00
11:42 pm 23:42 Mostly Cloudy 62 16.7 51 10.6 67 67 SSW 20 31 29.56 1001 7 11 0.00 0.00
11:49 pm 23:49 Mostly Cloudy 63 17 52 11 68 68 SW 17 28 29.56 1001 10 16 0.00 0.00
11:54 pm 23:54 Mostly Cloudy 62 16.7 51 10.6 67 67 SW 17 28 29.56 1001 10 16 0.00 0.00

Powered by AerisWeather